STARLINK-35318 (66146 NORAD) Tracking and Keplerian Element Data

This shows tracking and keplerian element data for the satellite.

Feedback or suggestion? Click here.




ElementValue
Catalog66146
NameSTARLINK-35318
Epoch Orbit978
Epoch Day353.66907218
Epoch Year2025
RAAN74.7352
Inclination53.1611
Eccentricity0.0003654
Argument of Perigee63.8184
Mean Anonmoly296.3192
Mean Motion15.30202172
Decay Rate0.00015122
L11 66146U 25240A 25353.66907218 .00015122 00000+0 52158-3 0 9997
L22 66146 53.1611 74.7352 0003654 63.8184 296.3192 15.30202172 9787



Live tracking and technical data element details for STARLINK-35318 (NORAD 66146). STARLINK-35318 can be tracked NOW for your location showing map with azimuth and elevation plus other details from your city location.







IsCatalogInMostPopularTable: catalog: 66146, numindb: 8
Update: records affected: 1



GetName: 66146 STARLINK-35318

Hit Count: updated at: Tue, 21 Apr 2026 20:25:32 GMT